sat.trackr.live / text

‹ back to catalog

YAM-3

NORAD 48915 · 2021-059AN

PAYLOAD ACTIVE UNKNOWN

§ Identity

Operator
Country
US
Launch date
2021-06-30
Launch site
AFETR
Launch vehicle
Mass (kg)
RCS (m²)

External: N2YO · Heavens-Above · Gunter

§ Orbital elements

Epoch: 2026-09-04T04:24:31.914144Z

Period
92.90 min
Inclination
97.6999°
Eccentricity
0.0006316
Mean motion
15.50120454 rev/d
Perigee alt
412.1 km
Apogee alt
420.7 km
Semi-major
6,794.5 km
B*
1.3671e-4
RAAN
79.4080°
Arg perigee
76.8566°
Mean anomaly
283.3389°
Rev number
28,922

§ Raw data

YAM-31 48915U 21059AN  26247.18370271  .00007595  00000+0  13671-3 0  99902 48915  97.6999  79.4080 0006316  76.8566 283.3389 15.50120454289226

JSON: /api/v1/satellites/48915 · /tle

For live sub-satellite position, see the globe view (requires WebGL).

§ Visibility from observer

Set your observer location to see the next 7 days of passes ≥ 10°. The values pass through the URL so the page stays shareable.

No JS? Fill the form by hand. The geolocation button needs JavaScript.

§ Radio — SatNOGS DB

ModeDescriptionDownlinkUplink
FM Service Link 400.100 MHz
BPSK UHF Unknown 401.500 MHz
FM UTX1 400.875 MHz
FM UTX2 401.017 MHz
FM UTX3 401.085 MHz

5 transmitters · refreshed weekly from db.satnogs.org